« Back
NWS Peachtree City, Ga » Text Product » CSG Terminal Aerodrome Forecast


Printer-friendly Version
Current Version              Previous Versions:   1  2  3  4  5  6  7  8  9  

Terminal Aerodrome Forecast

089
FTUS42 KFFC 222341
TAFCSG
TAF
KCSG 222341Z 2300/2324 08007KT P6SM BKN035
     FM230200 08006KT P6SM OVC018
     FM230400 07008KT 4SM -RA BR OVC007
     FM231400 10010KT 2SM SHRA BR OVC007 PROB30 2315/2319 2SM TSRA
      OVC015CB
     FM232100 16012KT 2SM SHRA BR OVC009
     FM232300 20012G18KT 4SM BR BKN012=

USA.gov is the U.S. government's official web portal to all federal, state and local government web resources and services.